Warning: Javascript must be enabled to use all the features on this page!


Page Loading - Please Wait...

Click to hideNews Bulletins

Peak Streamflow for the Nation

USGS 01335754 HUDSON RIVER ABOVE LOCK 1 NEAR WATERFORD NY

Saratoga County, New York
Hydrologic Unit Code 02020003
Latitude  42°49'45", Longitude  73°39'58" NAD83
Drainage area 4,605  square miles
Gage datum 0.00 feet above NGVD29
Output formats
Table
Graph
Tab-separated file
peakfq (watstore) format
Reselect output format
Water
Year
Date Gage
Height
(feet)
Stream-
flow
(cfs)
1869 1869-04   70,0002,7,Bd
1888 1888-05-02   45,6001
1889 1888-12-18   27,3001
1890 1890-09-18   26,0001
1891 1891-04-20   33,2001
1892 1892-04-07   43,9001
1893 1893-05-06   54,1001
1894 1894-03-24   25,6001
1895 1895-04-10   49,6001
1896 1896-04-19   59,4001
1897 1897-07-15   31,1001
1898 1898-03-14   39,2001
1899 1899-04-26   41,5001
1900 1900-04-23   43,5001
1901 1901-04-24   54,9001
1902 1902-03-18   42,9001
1903 1903-03-25   56,3001
1904 1904-04-11   36,3001
1905 1905-04-01   48,9001
1906 1906-04-16   40,3001
1907 1907-04-01   36,7001
1908 1908-04-28   34,3001
1909 1909-04-16   46,3001
1910 1910-04-03   37,8001
1911 1911-05-03   26,2001
1912 1912-04-08   47,3001
1913 1913-03-28   120,000
1914 1914-04-22   64,8001
1915 1915-02-25   33,2001
1916 1916-04-02   35,8001
1917 1917-06-13   36,3001
1918 1918-04-03   35,5001
1919 1919-04-13   31,6001
1920 1920-04-06   36,1001
1921 1921-03-22   33,0001
1922 1922-04-12   72,9001
1923 1923-04-09   43,7001
1924 1924-04-19   39,8001
1925 1925-03-30   44,3001
1926 1926-04-26   51,8001
1927 1927-03-21   35,6001
1928 1927-11-04   70,0001
1929 1929-03-25   40,2001
1930 1930-04-08   23,6001,6
1931 1931-07-22   24,3001,6
1932 1932-04-12   27,7001,6
1933 1933-04-19   46,7001,6
1934 1934-04-12   29,4001,6
1935 1935-01-10   34,0001,6
1936 1936-03-19   72,7001,6
1937 1937-05-16   28,5001,6
1938 1938-09-22   65,6001,6
1939 1939-04-29   33,8001,6
1940 1940-03-31   40,1001,6
1941 1940-12-31   22,6001,6
1942 1942-04-08   27,1001,6
1943 1943-05-13   33,1001,6
1944 1944-04-26   32,8001,6
1945 1945-03-22   32,6001,6
1946 1946-03-09   31,5001,6
1947 1947-06-04   40,7001,6
1948 1948-03-23   40,1001,6
1949 1949-01-01   118,0006
1950 1950-04-05   27,0001,6
1951 1951-03-31   39,4001,6
1952 1952-04-06   46,3001,6
1953 1953-03-27   44,4001,6
1954 1954-04-18   38,2001,6
1955 1955-04-16   33,0001,6
1956 1956-04-30   32,9001,6
1977 1977-03-15   71,8006,7
1982 1982-04-19 34.93 44,0006
1983 1983-05-04 35.59 52,0006
1984 1984-05-30 36.38 62,4006
1985 1985-03-13 26.232 33,6006
1986 1986-03-20 31.932 45,3006
1987 1987-04-01 31.392 44,2006
1988 1988-03-27 24.092 24,8006
1989 1989-04-07 26.602,5 33,0002,6
1990 1990-03-18 31.642 44,7006
1991 1990-11-11 33.70 33,6006
1992 1992-05-04 33.37 30,2006
1993 1993-03-30 32.902 53,0002,6
1994 1994-04-17 33.93 47,0002,6
1995 1995-01-17 23.782 23,3006
1996 1996-05-13 34.76 56,0002,6
1997 1996-12-02 34.15 50,0002,6
1998 1998-01-09 32.50 46,4006
1999 1999-01-25 27.45 35,3006
2000 2000-02-28 27.702 36,0006
2001 2000-12-18 29.342 39,9006
2002 2002-04-15 25.882 31,0006
2003 2003-03-30 26.452 32,6006
2004 2003-12-25 28.022 36,8006
2005 2005-04-03   43,0002,6
2006 2006-06-29   42,0002,6
2007 2007-04-25   38,0002,6
2008 2008-03-09   39,9006
2009 2008-12-13   31,9006
2010 2010-03-24   37,6006
2011 2011-08-29 33.412 75,5006,9
2012 2012-01-27 24.102 24,4006
2013 2013-06-14 31.672 46,2006
2014 2014-04-16 28.922 46,2006
2015 2014-12-25 24.952 28,5006
2016 2016-02-25 25.892 33,2006
2017 2017-07-02 31.702 48,3006
2018 2018-01-13 25.832 32,7006
2019 2019-04-16 30.442 48,0006
2020 2019-11-01 32.682 56,1006
?
  Peak Gage-Height Qualification Codes.
?
  Peak Streamflow Qualification Codes.